Location: Selby
(38.0566°N, 122.2439°W)
Time: 05:32:12
(UTC+00:00)

Cosmos 2322 - Pass Details

Date: 22 May 2024
Orbit: 839 x 854 km, 71.0° (Epoch: 13 June)

Event Time Altitude Azimuth Distance (km) Brightness Sun altitude
Rises 12:06:34 0° 337° (NNW) 3,423 7.0 -8.6°
Reaches altitude 10° 12:09:02 10° 338° (NNW) 2,482 6.3 -8.2°
Maximum altitude 12:14:45 90° 47° (NE) 852 3.8 -7.3°
Drops below altitude 10° 12:20:24 10° 159° (SSE) 2,456 6.0 -6.4°
Sets 12:22:50 0° 160° (SSE) 3,385 6.7 -6.0°
